Time,TemperatureF,DewpointF,PressureIn,WindDirection,WindDirectionDegrees,WindSpeedMPH,WindSpeedGustMPH,Humidity,HourlyPrecipIn,Conditions,Clouds,dailyrainin,SoftwareType,DateUTC
2013-06-01 00:02:00,66.0,64.0,29.68,South,178,0.0,-999.0,92,-99.99,,,-99.99,,2013-06-01 05:02:00,
2013-06-01 00:12:00,66.0,64.0,29.68,South,178,0.0,-999.0,92,-99.99,,,-99.99,,2013-06-01 05:12:00,
2013-06-01 00:22:00,66.0,64.0,29.68,South,178,0.0,-999.0,92,-99.99,,,-99.99,,2013-06-01 05:22:00,
2013-06-01 00:32:00,65.0,63.0,29.68,South,178,0.0,-999.0,92,-99.99,,,-99.99,,2013-06-01 05:32:00,
2013-06-01 00:42:00,65.0,63.0,29.68,South,178,0.0,-999.0,93,-99.99,,,-99.99,,2013-06-01 05:42:00,
2013-06-01 00:52:00,65.0,63.0,29.68,South,178,0.0,-999.0,93,-99.99,,,-99.99,,2013-06-01 05:52:00,
2013-06-01 01:01:00,65.0,63.0,29.68,South,178,0.0,-999.0,93,-99.99,,,-99.99,,2013-06-01 06:01:00,
2013-06-01 01:12:00,65.0,63.0,29.68,South,178,0.0,-999.0,93,-99.99,,,-99.99,,2013-06-01 06:12:00,
2013-06-01 01:22:00,65.0,63.0,29.68,South,178,0.0,-999.0,93,-99.99,,,-99.99,,2013-06-01 06:22:00,
2013-06-01 01:32:00,66.0,64.0,29.68,South,178,0.0,-999.0,93,-99.99,,,-99.99,,2013-06-01 06:32:00,
2013-06-01 01:42:00,66.0,64.0,29.67,South,178,0.0,-999.0,92,-99.99,,,-99.99,,2013-06-01 06:42:00,
2013-06-01 01:52:00,66.0,64.0,29.67,South,178,0.0,-999.0,92,-99.99,,,-99.99,,2013-06-01 06:52:00,
2013-06-01 02:01:00,66.0,64.0,29.68,South,178,0.0,-999.0,92,-99.99,,,-99.99,,2013-06-01 07:01:00,
2013-06-01 02:11:00,66.0,64.0,29.68,South,178,0.0,-999.0,92,-99.99,,,-99.99,,2013-06-01 07:11:00,
2013-06-01 02:21:00,66.0,64.0,29.68,South,176,0.0,-999.0,93,-99.99,,,-99.99,,2013-06-01 07:21:00,
2013-06-01 02:31:00,67.0,65.0,29.69,WSW,253,0.0,-999.0,93,-99.99,,,-99.99,,2013-06-01 07:31:00,
2013-06-01 02:42:00,65.0,60.0,29.68,SE,144,0.0,-999.0,83,-99.99,,,-99.99,,2013-06-01 07:42:00,
2013-06-01 02:52:00,65.0,60.0,29.68,SE,144,0.0,-999.0,83,-99.99,,,-99.99,,2013-06-01 07:52:00,
2013-06-01 03:02:00,66.0,58.0,29.67,SE,144,0.0,-999.0,76,-99.99,,,-99.99,,2013-06-01 08:02:00,
2013-06-01 03:11:00,65.0,56.0,29.68,SE,141,0.0,-999.0,73,-99.99,,,-99.99,,2013-06-01 08:11:00,
2013-06-01 03:21:00,65.0,56.0,29.68,SE,141,0.0,-999.0,73,-99.99,,,-99.99,,2013-06-01 08:21:00,
2013-06-01 03:32:00,64.0,55.0,29.68,SE,141,0.0,-999.0,72,-99.99,,,-99.99,,2013-06-01 08:32:00,
2013-06-01 03:42:00,63.0,55.0,29.67,SE,141,0.0,-999.0,75,-99.99,,,-99.99,,2013-06-01 08:42:00,
2013-06-01 03:52:00,63.0,55.0,29.67,SE,141,0.0,-999.0,75,-99.99,,,-99.99,,2013-06-01 08:52:00,
2013-06-01 04:01:00,62.0,55.0,29.68,SE,141,0.0,-999.0,77,-99.99,,,-99.99,,2013-06-01 09:01:00,
2013-06-01 04:12:00,62.0,55.0,29.68,SE,141,0.0,-999.0,77,-99.99,,,-99.99,,2013-06-01 09:12:00,
2013-06-01 04:21:00,61.0,54.0,29.69,SE,141,0.0,-999.0,78,-99.99,,,-99.99,,2013-06-01 09:21:00,
2013-06-01 04:33:00,60.0,53.0,29.70,SE,141,0.0,-999.0,78,-99.99,,,-99.99,,2013-06-01 09:33:00,
2013-06-01 04:42:00,60.0,53.0,29.70,SE,141,0.0,-999.0,78,-99.99,,,-99.99,,2013-06-01 09:42:00,
2013-06-01 04:53:00,60.0,53.0,29.69,SE,141,0.0,-999.0,78,-99.99,,,-99.99,,2013-06-01 09:53:00,
2013-06-01 05:02:00,59.0,53.0,29.70,SE,141,0.0,-999.0,80,-99.99,,,-99.99,,2013-06-01 10:02:00,
2013-06-01 05:13:00,59.0,53.0,29.70,SE,141,0.0,-999.0,80,-99.99,,,-99.99,,2013-06-01 10:13:00,
2013-06-01 05:22:00,58.0,52.0,29.70,SE,141,0.0,-999.0,81,-99.99,,,-99.99,,2013-06-01 10:22:00,
2013-06-01 05:33:00,58.0,52.0,29.70,SSE,159,0.0,-999.0,80,-99.99,,,-99.99,,2013-06-01 10:33:00,
2013-06-01 05:42:00,58.0,52.0,29.70,SSE,159,0.0,-999.0,80,-99.99,,,-99.99,,2013-06-01 10:42:00,
2013-06-01 05:52:00,59.0,52.0,29.69,South,169,0.0,-999.0,78,-99.99,,,-99.99,,2013-06-01 10:52:00,
2013-06-01 06:02:00,58.0,51.0,29.69,South,169,0.0,-999.0,77,-99.99,,,-99.99,,2013-06-01 11:02:00,
2013-06-01 06:11:00,58.0,51.0,29.69,South,169,0.0,-999.0,77,-99.99,,,-99.99,,2013-06-01 11:11:00,
2013-06-01 06:21:00,58.0,51.0,29.70,South,169,0.0,-999.0,77,-99.99,,,-99.99,,2013-06-01 11:21:00,
2013-06-01 06:32:00,58.0,51.0,29.70,South,169,0.0,-999.0,77,-99.99,,,-99.99,,2013-06-01 11:32:00,
2013-06-01 06:42:00,58.0,51.0,29.70,South,169,0.0,-999.0,77,-99.99,,,-99.99,,2013-06-01 11:42:00,
2013-06-01 06:52:00,58.0,51.0,29.71,South,169,0.0,-999.0,77,-99.99,,,-99.99,,2013-06-01 11:52:00,
2013-06-01 07:01:00,58.0,51.0,29.71,South,169,0.0,-999.0,78,-99.99,,,-99.99,,2013-06-01 12:01:00,
2013-06-01 07:12:00,58.0,51.0,29.71,South,169,0.0,-999.0,78,-99.99,,,-99.99,,2013-06-01 12:12:00,
2013-06-01 07:21:00,57.0,51.0,29.71,South,169,0.0,-999.0,79,-99.99,,,-99.99,,2013-06-01 12:21:00,
2013-06-01 07:32:00,58.0,51.0,29.72,South,181,0.0,-999.0,77,-99.99,,,-99.99,,2013-06-01 12:32:00,
2013-06-01 07:42:00,58.0,51.0,29.72,South,181,0.0,-999.0,77,-99.99,,,-99.99,,2013-06-01 12:42:00,
2013-06-01 07:52:00,58.0,51.0,29.72,South,181,0.0,-999.0,78,-99.99,,,-99.99,,2013-06-01 12:52:00,
2013-06-01 08:01:00,59.0,52.0,29.73,South,182,0.0,-999.0,78,-99.99,,,-99.99,,2013-06-01 13:01:00,
2013-06-01 08:11:00,59.0,52.0,29.73,South,182,0.0,-999.0,78,-99.99,,,-99.99,,2013-06-01 13:11:00,
2013-06-01 08:22:00,60.0,52.0,29.74,WSW,248,0.0,-999.0,76,-99.99,,,-99.99,,2013-06-01 13:22:00,
2013-06-01 08:32:00,61.0,53.0,29.74,SSW,207,0.0,-999.0,74,-99.99,,,-99.99,,2013-06-01 13:32:00,
2013-06-01 08:42:00,62.0,53.0,29.74,WSW,237,1.0,-999.0,72,-99.99,,,-99.99,,2013-06-01 13:42:00,
2013-06-01 08:52:00,62.0,53.0,29.74,WSW,237,1.0,-999.0,72,-99.99,,,-99.99,,2013-06-01 13:52:00,
2013-06-01 09:02:00,63.0,55.0,29.75,SSW,192,0.0,-999.0,74,-99.99,,,-99.99,,2013-06-01 14:02:00,
2013-06-01 09:11:00,63.0,55.0,29.75,SSW,192,0.0,-999.0,74,-99.99,,,-99.99,,2013-06-01 14:11:00,
2013-06-01 09:21:00,63.0,53.0,29.75,SSW,207,1.0,-999.0,70,-99.99,,,-99.99,,2013-06-01 14:21:00,
2013-06-01 09:32:00,64.0,54.0,29.75,WSW,254,1.0,-999.0,70,-99.99,,,-99.99,,2013-06-01 14:32:00,
2013-06-01 09:42:00,64.0,54.0,29.75,WSW,254,1.0,-999.0,70,-99.99,,,-99.99,,2013-06-01 14:42:00,
2013-06-01 09:52:00,65.0,55.0,29.75,SE,140,1.0,-999.0,70,-99.99,,,-99.99,,2013-06-01 14:52:00,
2013-06-01 10:02:00,65.0,54.0,29.75,WSW,252,1.0,-999.0,68,-99.99,,,-99.99,,2013-06-01 15:02:00,
2013-06-01 10:11:00,65.0,54.0,29.75,WSW,252,1.0,-999.0,68,-99.99,,,-99.99,,2013-06-01 15:11:00,
2013-06-01 10:21:00,65.0,55.0,29.75,SSW,212,1.0,-999.0,70,-99.99,,,-99.99,,2013-06-01 15:21:00,
2013-06-01 10:33:00,64.0,55.0,29.76,SSW,207,1.0,-999.0,72,-99.99,,,-99.99,,2013-06-01 15:33:00,
2013-06-01 10:43:00,64.0,55.0,29.76,SSW,207,1.0,-999.0,72,-99.99,,,-99.99,,2013-06-01 15:43:00,
2013-06-01 10:53:00,65.0,55.0,29.76,SW,215,1.0,-999.0,70,-99.99,,,-99.99,,2013-06-01 15:53:00,
2013-06-01 11:03:00,66.0,56.0,29.76,SSE,161,1.0,-999.0,69,-99.99,,,-99.99,,2013-06-01 16:03:00,
2013-06-01 11:12:00,66.0,56.0,29.76,SSE,161,1.0,-999.0,69,-99.99,,,-99.99,,2013-06-01 16:12:00,
2013-06-01 11:23:00,65.0,55.0,29.77,South,186,1.0,-999.0,69,-99.99,,,-99.99,,2013-06-01 16:23:00,
2013-06-01 11:33:00,65.0,55.0,29.77,NW,313,0.0,-999.0,71,-99.99,,,-99.99,,2013-06-01 16:33:00,
2013-06-01 11:42:00,65.0,55.0,29.77,NW,313,0.0,-999.0,71,-99.99,,,-99.99,,2013-06-01 16:42:00,
2013-06-01 11:52:00,66.0,57.0,29.77,WNW,293,0.0,-999.0,73,-99.99,,,-99.99,,2013-06-01 16:52:00,
2013-06-01 12:02:00,66.0,56.0,29.77,ENE,74,1.0,-999.0,71,-99.99,,,-99.99,,2013-06-01 17:02:00,
2013-06-01 12:12:00,66.0,56.0,29.77,ENE,74,1.0,-999.0,71,-99.99,,,-99.99,,2013-06-01 17:12:00,
2013-06-01 12:22:00,66.0,57.0,29.78,South,189,1.0,-999.0,73,-99.99,,,-99.99,,2013-06-01 17:22:00,
2013-06-01 12:32:00,66.0,57.0,29.79,SSW,203,1.0,-999.0,73,-99.99,,,-99.99,,2013-06-01 17:32:00,
2013-06-01 12:42:00,66.0,57.0,29.79,SSW,203,1.0,-999.0,73,-99.99,,,-99.99,,2013-06-01 17:42:00,
2013-06-01 12:52:00,66.0,57.0,29.80,WNW,282,1.0,-999.0,74,-99.99,,,-99.99,,2013-06-01 17:52:00,
2013-06-01 13:01:00,65.0,56.0,29.80,SSW,209,1.0,-999.0,74,-99.99,,,-99.99,,2013-06-01 18:01:00,
2013-06-01 13:12:00,65.0,56.0,29.80,SSW,209,1.0,-999.0,74,-99.99,,,-99.99,,2013-06-01 18:12:00,
2013-06-01 13:21:00,66.0,58.0,29.80,SSW,200,0.0,-999.0,76,-99.99,,,-99.99,,2013-06-01 18:21:00,
2013-06-01 13:32:00,65.0,57.0,29.80,SSW,202,0.0,-999.0,75,-99.99,,,-99.99,,2013-06-01 18:32:00,
2013-06-01 13:42:00,65.0,57.0,29.80,SSW,202,0.0,-999.0,75,-99.99,,,-99.99,,2013-06-01 18:42:00,
2013-06-01 13:51:00,65.0,57.0,29.80,SSW,210,0.0,-999.0,76,-99.99,,,-99.99,,2013-06-01 18:51:00,
2013-06-01 14:02:00,66.0,58.0,29.80,SW,232,0.0,-999.0,75,-99.99,,,-99.99,,2013-06-01 19:02:00,
2013-06-01 14:11:00,66.0,58.0,29.80,SW,227,0.0,-999.0,76,-99.99,,,-99.99,,2013-06-01 19:11:00,
2013-06-01 14:21:00,66.0,58.0,29.80,SW,227,0.0,-999.0,76,-99.99,,,-99.99,,2013-06-01 19:21:00,
2013-06-01 14:32:00,66.0,59.0,29.81,SW,235,0.0,-999.0,77,-99.99,,,-99.99,,2013-06-01 19:32:00,
2013-06-01 14:42:00,66.0,59.0,29.81,SW,235,0.0,-999.0,77,-99.99,,,-99.99,,2013-06-01 19:42:00,
2013-06-01 14:52:00,65.0,57.0,29.81,South,172,1.0,-999.0,76,-99.99,,,-99.99,,2013-06-01 19:52:00,
2013-06-01 15:01:00,66.0,59.0,29.81,SSE,151,0.0,-999.0,79,-99.99,,,-99.99,,2013-06-01 20:01:00,
2013-06-01 15:12:00,66.0,59.0,29.81,SSE,151,0.0,-999.0,79,-99.99,,,-99.99,,2013-06-01 20:12:00,
2013-06-01 15:21:00,66.0,59.0,29.82,SSW,209,1.0,-999.0,78,-99.99,,,-99.99,,2013-06-01 20:21:00,
2013-06-01 15:32:00,66.0,58.0,29.82,NW,325,1.0,-999.0,76,-99.99,,,-99.99,,2013-06-01 20:32:00,
2013-06-01 15:42:00,65.0,58.0,29.83,NNW,327,0.0,-999.0,79,-99.99,,,-99.99,,2013-06-01 20:42:00,
2013-06-01 15:52:00,65.0,58.0,29.83,NNW,327,0.0,-999.0,79,-99.99,,,-99.99,,2013-06-01 20:52:00,
2013-06-01 16:01:00,65.0,58.0,29.84,NW,317,0.0,-999.0,79,-99.99,,,-99.99,,2013-06-01 21:01:00,
2013-06-01 16:11:00,66.0,59.0,29.84,South,189,1.0,-999.0,79,-99.99,,,-99.99,,2013-06-01 21:11:00,
2013-06-01 16:21:00,66.0,59.0,29.84,South,189,1.0,-999.0,79,-99.99,,,-99.99,,2013-06-01 21:21:00,
2013-06-01 16:33:00,67.0,59.0,29.84,NNW,333,1.0,-999.0,76,-99.99,,,-99.99,,2013-06-01 21:33:00,
2013-06-01 16:42:00,67.0,59.0,29.84,NNW,333,1.0,-999.0,76,-99.99,,,-99.99,,2013-06-01 21:42:00,
2013-06-01 16:53:00,67.0,58.0,29.85,NNW,331,1.0,-999.0,74,-99.99,,,-99.99,,2013-06-01 21:53:00,
2013-06-01 17:03:00,65.0,57.0,29.85,NW,313,0.0,-999.0,75,-99.99,,,-99.99,,2013-06-01 22:03:00,
2013-06-01 17:12:00,64.0,56.0,29.85,East,90,1.0,-999.0,76,-99.99,,,-99.99,,2013-06-01 22:12:00,
2013-06-01 17:23:00,64.0,56.0,29.85,East,90,1.0,-999.0,76,-99.99,,,-99.99,,2013-06-01 22:23:00,
2013-06-01 17:33:00,65.0,58.0,29.86,West,276,0.0,-999.0,78,-99.99,,,-99.99,,2013-06-01 22:33:00,
2013-06-01 17:42:00,65.0,58.0,29.86,West,276,0.0,-999.0,78,-99.99,,,-99.99,,2013-06-01 22:42:00,
2013-06-01 17:53:00,65.0,58.0,29.86,East,90,0.0,-999.0,77,-99.99,,,-99.99,,2013-06-01 22:53:00,
2013-06-01 18:02:00,65.0,57.0,29.87,NNW,344,1.0,-999.0,75,-99.99,,,-99.99,,2013-06-01 23:02:00,
2013-06-01 18:11:00,65.0,57.0,29.88,North,11,0.0,-999.0,76,-99.99,,,-99.99,,2013-06-01 23:11:00,
2013-06-01 18:22:00,65.0,57.0,29.88,North,11,0.0,-999.0,76,-99.99,,,-99.99,,2013-06-01 23:22:00,
2013-06-01 18:32:00,65.0,58.0,29.88,NW,323,0.0,-999.0,77,-99.99,,,-99.99,,2013-06-01 23:32:00,
2013-06-01 18:42:00,65.0,58.0,29.88,NW,323,0.0,-999.0,77,-99.99,,,-99.99,,2013-06-01 23:42:00,
2013-06-01 18:52:00,64.0,56.0,29.88,WSW,246,0.0,-999.0,76,-99.99,,,-99.99,,2013-06-01 23:52:00,
2013-06-01 19:02:00,64.0,56.0,29.89,NNW,329,0.0,-999.0,76,-99.99,,,-99.99,,2013-06-02 00:02:00,
2013-06-01 19:11:00,64.0,56.0,29.89,NNW,329,0.0,-999.0,76,-99.99,,,-99.99,,2013-06-02 00:11:00,
2013-06-01 19:21:00,64.0,57.0,29.89,NW,325,0.0,-999.0,78,-99.99,,,-99.99,,2013-06-02 00:21:00,
2013-06-01 19:32:00,64.0,58.0,29.89,NW,313,0.0,-999.0,81,-99.99,,,-99.99,,2013-06-02 00:32:00,
2013-06-01 19:41:00,64.0,58.0,29.89,NW,313,0.0,-999.0,81,-99.99,,,-99.99,,2013-06-02 00:41:00,
2013-06-01 19:51:00,63.0,57.0,29.90,NW,312,0.0,-999.0,80,-99.99,,,-99.99,,2013-06-02 00:51:00,
2013-06-01 20:01:00,63.0,57.0,29.90,NW,312,0.0,-999.0,80,-99.99,,,-99.99,,2013-06-02 01:01:00,
2013-06-01 20:11:00,63.0,57.0,29.90,NW,312,0.0,-999.0,80,-99.99,,,-99.99,,2013-06-02 01:11:00,
2013-06-01 20:21:00,62.0,56.0,29.91,NW,312,0.0,-999.0,81,-99.99,,,-99.99,,2013-06-02 01:21:00,
2013-06-01 20:32:00,62.0,57.0,29.91,NW,312,0.0,-999.0,83,-99.99,,,-99.99,,2013-06-02 01:32:00,
2013-06-01 20:41:00,62.0,57.0,29.91,NW,312,0.0,-999.0,83,-99.99,,,-99.99,,2013-06-02 01:41:00,
2013-06-01 20:52:00,62.0,57.0,29.91,NW,312,0.0,-999.0,83,-99.99,,,-99.99,,2013-06-02 01:52:00,
2013-06-01 21:01:00,62.0,57.0,29.91,NW,312,0.0,-999.0,84,-99.99,,,-99.99,,2013-06-02 02:01:00,
2013-06-01 21:12:00,62.0,57.0,29.91,NW,312,0.0,-999.0,84,-99.99,,,-99.99,,2013-06-02 02:12:00,
2013-06-01 21:21:00,62.0,57.0,29.92,NW,311,0.0,-999.0,83,-99.99,,,-99.99,,2013-06-02 02:21:00,
2013-06-01 21:32:00,62.0,57.0,29.92,SSW,205,0.0,-999.0,83,-99.99,,,-99.99,,2013-06-02 02:32:00,
2013-06-01 21:41:00,62.0,57.0,29.92,SSW,205,0.0,-999.0,83,-99.99,,,-99.99,,2013-06-02 02:41:00,
2013-06-01 21:51:00,62.0,56.0,29.93,SSW,194,0.0,-999.0,80,-99.99,,,-99.99,,2013-06-02 02:51:00,
2013-06-01 22:02:00,62.0,55.0,29.94,WSW,252,1.0,-999.0,79,-99.99,,,-99.99,,2013-06-02 03:02:00,
2013-06-01 22:11:00,62.0,55.0,29.94,WSW,252,1.0,-999.0,79,-99.99,,,-99.99,,2013-06-02 03:11:00,
2013-06-01 22:21:00,61.0,54.0,29.93,NW,324,2.0,-999.0,79,-99.99,,,-99.99,,2013-06-02 03:21:00,
2013-06-01 22:33:00,60.0,53.0,29.94,WNW,300,1.0,-999.0,79,-99.99,,,-99.99,,2013-06-02 03:33:00,
2013-06-01 22:43:00,60.0,53.0,29.94,WNW,300,1.0,-999.0,79,-99.99,,,-99.99,,2013-06-02 03:43:00,
2013-06-01 22:52:00,59.0,53.0,29.95,North,360,1.0,-999.0,81,-99.99,,,-99.99,,2013-06-02 03:52:00,
2013-06-01 23:02:00,59.0,-99.9,29.95,NNW,341,0.0,-999.0,81,-99.99,,,-99.99,,2013-06-02 04:02:00,
2013-06-01 23:13:00,59.0,53.0,29.95,NNW,341,0.0,-999.0,81,-99.99,,,-99.99,,2013-06-02 04:13:00,
2013-06-01 23:23:00,58.0,53.0,29.95,NW,325,0.0,-999.0,82,-99.99,,,-99.99,,2013-06-02 04:23:00,
2013-06-01 23:33:00,58.0,53.0,29.95,NNW,344,2.0,-999.0,82,-99.99,,,-99.99,,2013-06-02 04:33:00,
2013-06-01 23:42:00,58.0,53.0,29.95,NNW,344,2.0,-999.0,82,-99.99,,,-99.99,,2013-06-02 04:42:00,
2013-06-01 23:52:00,57.0,52.0,29.96,North,10,0.0,-999.0,82,-99.99,,,-99.99,,2013-06-02 04:52:00,